Regional Weather Roundup
Issued by NWS

Current Version | Previous Version | Text Only | Print | Product List | Glossary Off
Versions: 1 2 3 4 5 6 7 8 9 10 11 12 13 14 15 16 17 18 19 20 21 22 23 24 25 26 27 28 29 30 31 32 33 34 35 36 37 38 39 40 41 42 43 44 45 46 47 48 49 50

000
ASUS42 KFFC 300303
RWRGA
WEATHER ROUNDUP FOR GEORGIA
NATIONAL WEATHER SERVICE PEACHTREE CITY GA
1100 PM EDT MON JUN 29 2015

NOTE: "FAIR" INDICATES FEW OR NO CLOUDS BELOW 12,000 FEET WITH NO
SIGNIFICANT WEATHER AND/OR OBSTRUCTIONS TO VISIBILITY.

* = USE WITH CAUTION. THE STATIONS MARKED WITH AN ASTERISK MAY NOT
REPORT WEATHER SUCH AS PRECIPITATION, FOG, OR THUNDER AND ARE NOT
QUALITY CONTROLLED BY NWS.

THE REMARK "TC" DENOTES TEMPERATURE READING IN DEGREES CELSIUS.

GAZ001>058-300400-
NORTH GEORGIA

CITY           SKY/WX    TMP DP  RH WIND       PRES   REMARKS
ATLANTA        MOCLDY    76  64  66 S7        30.00S
ATHENS         PTCLDY    76  62  62 VRB3      30.00R
CHAMBLEE       CLEAR     77  64  64 S6        30.00R
PEACHTREE CITY PTCLDY    72  67  84 SE3       30.01S
ROME           PTCLDY    73  65  75 S3        29.95R
WEST ATLANTA   CLEAR     78  65  63 S3        30.00R
GAINESVILLE    CLEAR     76  62  62 S6        30.03R
CARTERSVILLE   CLEAR     74  64  71 S7        29.98R


CITY           SKY/WX    TMP DP  RH WIND       PRES   REMARKS
DALTON*        MOCLDY    73  66  78 S3        29.97R
MARIETTA       CLEAR     77  66  68 S6        30.00R
KENNESAW*      PTCLDY    77  64  65 SW5       30.01R
BLAIRSVILLE*     N/A     70  47  43 CALM      30.05R
$$

GAZ059>098-102>109-300400-
CENTRAL GEORGIA

CITY           SKY/WX    TMP DP  RH WIND       PRES   REMARKS
AUGUSTA-BUSH   CLEAR     71  65  81 CALM      29.99R
AUGUSTA-DANIEL CLEAR     80  60  50 SW3       30.00R
COLUMBUS       CLEAR     79  64  60 W3        30.00R
MACON          CLEAR     72  68  87 CALM      30.00R
ROBINS AFB     CLEAR     73  66  78 SE3       30.00R


CITY           SKY/WX    TMP DP  RH WIND       PRES   REMARKS
LAGRANGE*      MOCLDY    74  74 100 CALM      30.01S
SYLVANIA*      CLEAR     75  71  88 CALM      30.02R
MILLEDGEVILLE* CLEAR     73  63  68 CALM      30.00R
$$

GAZ099>101-110>166-300400-
SOUTH GEORGIA

CITY           SKY/WX    TMP DP  RH WIND       PRES   REMARKS
SAVANNAH       PTCLDY    77  65  66 S6        30.02R
VALDOSTA       CLEAR     74  71  91 CALM      30.03R
ALMA           CLEAR     72  68  87 SW3       30.02R
ST SIMONS      CLEAR     78  74  87 CALM      30.03R
FT STEWART     CLEAR     76  67  74 S3        29.99R
ALBANY         CLEAR     77  70  79 SW6       30.04R
HUNTER AFB     CLEAR     77  68  75 S3        29.99R
MOODY AFB      CLEAR     74  69  82 S6        30.02R
BRUNSWICK      CLEAR     72  70  94 CALM      30.03S


CITY           SKY/WX    TMP DP  RH WIND       PRES   REMARKS
BAINBRIDGE*    CLEAR     79  75  89 S7        30.03R
MOULTRIE*      CLEAR     77  68  73 CALM      30.04R
VIDALIA*       CLEAR     77  66  69 SW3       30.02R
WAYCROSS*      CLEAR     76  71  85 W3        30.03R
DOUGLAS*       CLEAR     77  68  73 SW3       30.04R
$$


USA.gov is the U.S. government's official web portal to all federal, state and local government web resources and services.